sat.trackr.live / text

‹ back to catalog

STARLINK-30839

NORAD 58209 · 2023-170D

PAYLOAD ACTIVE UNKNOWN

§ Identity

Operator
Country
US
Launch date
2023-11-03
Launch site
AFETR
Launch vehicle
Mass (kg)
RCS (m²)

Purposes: comms

External: N2YO · Heavens-Above · Gunter

§ Orbital elements

Epoch: 2026-05-24T22:24:20.684736Z

Period
94.27 min
Inclination
42.9982°
Eccentricity
0.0000824
Mean motion
15.27586324 rev/d
Perigee alt
482.5 km
Apogee alt
483.6 km
Semi-major
6,861.2 km
B*
1.2882e-4
RAAN
123.3265°
Arg perigee
81.2180°
Mean anomaly
278.8765°
Rev number
14,196

§ Raw data

STARLINK-308391 58209U 23170D   26144.93357274  .00003285  00000+0  12882-3 0  99952 58209  42.9982 123.3265 0000824  81.2180 278.8765 15.27586324141963

JSON: /api/v1/satellites/58209 · /tle

For live sub-satellite position, see the globe view (requires WebGL).

§ Visibility from observer

Set your observer location to see the next 7 days of passes ≥ 10°. The values pass through the URL so the page stays shareable.

No JS? Fill the form by hand. The geolocation button needs JavaScript.